EW0631 Weather Reports


time (UTC)temp
C
wind
direction
speed
KPH
gust
KPH
rain 1hr
cm
rain 24hr
cm
rain mn
cm
humidity
%
barometer
mb
20260906040046 28 331 0.0 0.0 0.00 0.00 0.00 81 1012.1
20260906034526 28 331 0.0 0.0 0.00 0.00 0.00 81 1012.0
20260906033020 28 331 0.0 0.0 0.00 0.00 0.00 81 1012.1
20260906031501 29 331 0.0 0.0 0.00 0.00 0.00 80 1012.0
20260906030101 29 331 0.0 0.0 0.00 0.00 0.00 79 1012.0
20260906024541 29 331 0.0 0.0 0.00 0.00 0.00 78 1012.0
20260906023045 29 331 0.0 0.0 0.00 0.00 0.00 77 1011.9
20260906021521 30 331 0.0 0.0 0.00 0.00 0.00 77 1011.8
20260906020019 30 331 0.0 0.0 0.00 0.00 0.00 76 1011.4
20260906014611 30 331 0.0 0.0 0.00 0.00 0.00 72 1011.2
20260906013057 31 331 0.0 0.0 0.00 0.00 0.00 70 1011.1
20260906011535 31 331 0.0 0.0 0.00 0.00 0.00 66 1011.0
20260906010032 32 331 0.0 0.0 0.00 0.00 0.00 62 1010.9
20260906004510 33 331 0.0 0.0 0.00 0.00 0.00 57 1010.8
20260906003007 34 331 0.0 0.0 0.00 0.00 0.00 56 1010.8
20260906001548 35 331 0.0 0.0 0.00 0.00 0.00 52 1010.9
20260906000046 36 331 0.0 0.0 0.00 0.00 0.00 50 1011.0
20260905234528 37 330 0.0 0.0 0.00 0.00 0.00 47 1011.1
20260905233028 38 331 0.0 0.0 0.00 0.00 0.00 43 1011.2
20260905231510 38 331 0.0 1.6 0.00 0.00 0.00 42 1011.1
20260905230009 38 331 0.0 1.6 0.00 0.00 0.00 42 1011.1
20260905224608 38 326 0.0 1.6 0.00 0.00 0.00 42 1011.1
20260905223054 38 327 0.0 1.6 0.00 0.00 0.00 42 1011.1
20260905221538 39 252 0.0 1.6 0.00 0.00 0.00 40 1011.2
20260905220033 39 130 0.0 3.2 0.00 0.00 0.00 40 1011.2
20260905214513 39 86 0.0 3.2 0.00 0.00 0.00 39 1011.3
20260905213011 38 98 0.0 6.4 0.00 0.00 0.00 41 1011.4
20260905211558 38 333 0.0 3.2 0.00 0.00 0.00 41 1011.3
20260905210057 39 321 0.0 3.2 0.00 0.00 0.00 40 1011.5
20260905204554 38 287 1.6 8.0 0.00 0.00 0.00 41 1011.6
20260905203053 38 323 0.0 6.4 0.00 0.00 0.00 40 1011.9
20260905201559 38 303 0.0 8.0 0.00 0.00 0.00 44 1012.2
20260905200051 38 343 0.0 8.0 0.00 0.00 0.00 42 1012.4
20260905194546 38 39 0.0 9.7 0.00 0.00 0.00 46 1012.6
20260905193043 38 199 0.0 6.4 0.00 0.00 0.00 45 1012.9
20260905191527 38 267 0.0 6.4 0.00 0.00 0.00 45 1013.3
20260905190028 37 281 0.0 8.0 0.00 0.00 0.00 45 1013.4
20260905184525 37 261 0.0 4.8 0.00 0.00 0.00 46 1013.5
20260905183024 37 166 0.0 6.4 0.00 0.00 0.00 47 1013.6
20260905181522 37 310 1.6 8.0 0.00 0.00 0.00 46 1013.6
20260905180019 37 347 0.0 12.9 0.00 0.00 0.00 47 1013.7
20260905174520 37 288 0.0 8.0 0.00 0.00 0.00 50 1013.9
20260905173025 37 217 0.0 9.7 0.00 0.00 0.00 51 1014.0
20260905171612 36 295 0.0 6.4 0.00 0.00 0.00 53 1014.3
20260905170055 36 165 0.0 6.4 0.00 0.00 0.00 55 1014.4
20260905164551 36 153 0.0 3.2 0.00 0.00 0.00 56 1014.5
20260905163030 35 286 0.0 6.4 0.00 0.00 0.00 59 1014.7
20260905161528 34 292 0.0 8.0 0.00 0.00 0.00 62 1014.8
20260905160021 34 305 0.0 8.0 0.00 0.00 0.00 62 1014.8
20260905154515 33 203 0.0 1.6 0.00 0.00 0.00 64 1015.0
20260905153018 33 297 0.0 6.4 0.00 0.00 0.00 65 1014.9
20260905151514 33 281 0.0 3.2 0.00 0.00 0.00 65 1014.9
20260905150013 32 259 0.0 3.2 0.00 0.00 0.00 66 1014.8
20260905144513 32 259 0.0 3.2 0.00 0.00 0.00 65 1015.0
20260905143016 31 252 0.0 3.2 0.00 0.00 0.00 68 1014.9
20260905141513 30 251 0.0 1.6 0.00 0.00 0.00 71 1014.7
20260905140055 30 254 0.0 3.2 0.00 0.00 0.00 72 1014.7
20260905134554 29 254 0.0 1.6 0.00 0.00 0.00 73 1014.7
20260905133035 28 254 0.0 0.0 0.00 0.00 0.00 79 1014.6
20260905131552 27 254 0.0 0.0 0.00 0.00 0.00 84 1014.6
20260905130018 26 254 0.0 0.0 0.00 0.00 0.00 86 1014.5
20260905124535 26 254 0.0 0.0 0.00 0.00 0.00 88 1014.4
20260905123109 25 254 0.0 0.0 0.00 0.00 0.00 89 1014.4
20260905121559 25 254 0.0 0.0 0.00 0.00 0.00 89 1014.3
20260905120043 -17 0.0 0.0 0.00 0.00 0.00 1014.1
20260905114543 -17 0.0 0.0 0.00 0.00 0.00 1014.0
20260905113039 -17 0.0 0.0 0.00 0.00 0.00 1013.8
20260905111533 -17 0.0 0.0 0.00 0.00 0.00 1013.7
20260905110025 -17 0.0 0.0 0.00 0.00 0.00 1013.6
20260905104520 -17 0.0 0.0 0.00 0.00 0.00 1013.5
20260905103028 -17 0.0 0.0 0.00 0.00 0.00 1013.5
20260905101524 -17 0.0 0.0 0.00 0.00 0.00 1013.6
20260905100051 -17 0.0 0.0 0.00 0.00 0.00 1013.6
20260905094546 -17 0.0 0.0 0.00 0.00 0.00 1013.5
20260905093025 26 254 0.0 0.0 0.00 0.00 0.00 84 1013.5
20260905091524 26 254 0.0 0.0 0.00 0.00 0.00 83 1013.5
20260905090007 26 254 0.0 0.0 0.00 0.00 0.00 83 1013.5
20260905084513 26 254 0.0 0.0 0.00 0.00 0.00 82 1013.4
20260905083052 26 254 0.0 0.0 0.00 0.00 0.00 82 1013.4
20260905081556 26 254 0.0 0.0 0.00 0.00 0.00 82 1013.5
20260905080050 26 254 0.0 0.0 0.00 0.00 0.00 82 1013.6
20260905074552 27 254 0.0 0.0 0.00 0.00 0.00 81 1013.6
20260905073047 27 254 0.0 0.0 0.00 0.00 0.00 80 1013.6
20260905071546 27 254 0.0 0.0 0.00 0.00 0.00 80 1013.5
20260905070045 27 254 0.0 0.0 0.00 0.00 0.00 79 1013.6
20260905064543 27 254 0.0 0.0 0.00 0.00 0.00 79 1013.7
20260905063024 27 254 0.0 0.0 0.00 0.00 0.00 77 1013.7
20260905061523 27 254 0.0 0.0 0.00 0.00 0.00 77 1013.7
20260905060004 28 254 0.0 0.0 0.00 0.00 0.00 76 1013.8
20260905054503 28 254 0.0 0.0 0.00 0.00 0.00 76 1013.7
20260905053048 28 254 0.0 0.0 0.00 0.00 0.00 76 1013.8
20260905051543 28 254 0.0 0.0 0.00 0.00 0.00 75 1013.8
20260905050025 28 254 0.0 0.0 0.00 0.00 0.00 75 1013.9
20260905044523 28 254 0.0 0.0 0.00 0.00 0.00 75 1013.9
20260905043004 29 254 0.0 0.0 0.00 0.00 0.00 74 1014.0
20260905041503 29 254 0.0 0.0 0.00 0.00 0.00 73 1014.0